Hourly Weather Gogolow

Today, 17 May, Monday

Time Temperature Precipitation Wind Pressure Humidity
00:00 +8°C° 0 mm 2 mps 731 mmHg 93%
01:00 +8°C° 0 mm 2 mps 731 mmHg 93%
02:00 +8°C° 0 mm 2 mps 731 mmHg 94%
03:00 +7°C° 0 mm 2 mps 731 mmHg 94%
04:00 +7°C° 0 mm 2 mps 731 mmHg 94%
05:00 +9°C° 0 mm 2 mps 731 mmHg 92%
06:00 +10°C° 0 mm 3 mps 731 mmHg 90%
07:00 +12°C° 0 mm 3 mps 731 mmHg 88%
08:00 +13°C° 0 mm 4 mps 730 mmHg 81%
09:00 +15°C° 0 mm 4 mps 730 mmHg 74%
10:00 +17°C° 0 mm 4 mps 730 mmHg 67%
11:00 +18°C° 0 mm 4 mps 730 mmHg 63%
12:00 +19°C° 0 mm 3 mps 730 mmHg 58%
13:00 +20°C° 0 mm 3 mps 729 mmHg 54%
14:00 +20°C° 0 mm 3 mps 729 mmHg 57%
15:00 +19°C° 0 mm 3 mps 729 mmHg 60%
16:00 +19°C° 0 mm 3 mps 728 mmHg 63%
17:00 +17°C° 0.1 mm 3 mps 729 mmHg 73%
18:00 +13°C° 0.1 mm 4 mps 729 mmHg 82%
19:00 +11°C° 0.1 mm 4 mps 729 mmHg 91%
20:00 +11°C° 0.1 mm 4 mps 729 mmHg 92%
21:00 +10°C° 0.1 mm 4 mps 729 mmHg 93%
22:00 +10°C° 0.1 mm 4 mps 730 mmHg 94%
23:00 +9°C° 0.5 mm 5 mps 730 mmHg 94%

Tomorrow, 18 May, Tuesday

Time Temperature Precipitation Wind Pressure Humidity
00:00 +9°C° 0.5 mm 5 mps 730 mmHg 95%
01:00 +8°C° 0.5 mm 5 mps 730 mmHg 95%
02:00 +8°C° 0.7 mm 5 mps 730 mmHg 96%
03:00 +8°C° 0.7 mm 5 mps 730 mmHg 96%
04:00 +8°C° 0.7 mm 4 mps 730 mmHg 96%
05:00 +8°C° 0.8 mm 4 mps 730 mmHg 96%
06:00 +8°C° 0.8 mm 5 mps 731 mmHg 96%
07:00 +8°C° 0.8 mm 5 mps 731 mmHg 96%
08:00 +8°C° 0.7 mm 6 mps 731 mmHg 95%
09:00 +8°C° 0.7 mm 6 mps 732 mmHg 94%
10:00 +8°C° 0.7 mm 6 mps 732 mmHg 93%
11:00 +9°C° 0.2 mm 6 mps 732 mmHg 89%
12:00 +10°C° 0.2 mm 6 mps 733 mmHg 86%
13:00 +11°C° 0.2 mm 6 mps 733 mmHg 82%
14:00 +11°C° 0.1 mm 6 mps 733 mmHg 80%
15:00 +13°C° 0.1 mm 6 mps 733 mmHg 78%
16:00 +13°C° 0.1 mm 5 mps 733 mmHg 75%
17:00 +12°C° 0 mm 4 mps 733 mmHg 78%
18:00 +11°C° 0 mm 3 mps 733 mmHg 81%
19:00 +12°C° 0 mm 2 mps 733 mmHg 84%
20:00 +10°C° 0 mm 2 mps 734 mmHg 87%
21:00 +9°C° 0 mm 2 mps 734 mmHg 89%
22:00 +8°C° 0 mm 3 mps 734 mmHg 92%
23:00 +8°C° 0 mm 2 mps 734 mmHg 92%

Day after tomorrow, 19 May, Wednesday

Time Temperature Precipitation Wind Pressure Humidity
00:00 +7°C° 0 mm 2 mps 734 mmHg 93%
01:00 +7°C° 0 mm 2 mps 735 mmHg 93%
02:00 +7°C° 0 mm 2 mps 735 mmHg 94%
03:00 +6°C° 0 mm 2 mps 735 mmHg 94%
04:00 +6°C° 0 mm 2 mps 735 mmHg 94%
05:00 +8°C° 0 mm 3 mps 735 mmHg 90%
06:00 +10°C° 0 mm 3 mps 735 mmHg 86%
07:00 +11°C° 0 mm 4 mps 735 mmHg 82%
08:00 +12°C° 0.1 mm 4 mps 735 mmHg 78%
09:00 +13°C° 0.1 mm 4 mps 735 mmHg 75%
10:00 +14°C° 0.1 mm 4 mps 735 mmHg 71%
11:00 +14°C° 0.1 mm 4 mps 735 mmHg 70%
12:00 +15°C° 0.1 mm 4 mps 735 mmHg 68%
13:00 +15°C° 0.1 mm 4 mps 735 mmHg 67%
14:00 +14°C° 0.5 mm 3 mps 735 mmHg 71%
15:00 +14°C° 0.5 mm 3 mps 734 mmHg 76%
16:00 +13°C° 0.5 mm 3 mps 734 mmHg 80%
17:00 +12°C° 2.2 mm 3 mps 734 mmHg 85%
18:00 +11°C° 2.2 mm 4 mps 735 mmHg 90%
19:00 +10°C° 2.2 mm 4 mps 735 mmHg 95%
20:00 +8°C° 2.7 mm 4 mps 735 mmHg 96%
21:00 +9°C° 2.7 mm 3 mps 735 mmHg 97%
22:00 +9°C° 2.7 mm 3 mps 735 mmHg 97%
23:00 +9°C° 1.8 mm 3 mps 735 mmHg 97%

20 May, Thursday

Time Temperature Precipitation Wind Pressure Humidity
00:00 +8°C° 1.8 mm 3 mps 735 mmHg 97%
01:00 +8°C° 1.8 mm 3 mps 735 mmHg 97%
02:00 +7°C° 1.8 mm 4 mps 735 mmHg 97%
03:00 +7°C° 1.8 mm 4 mps 735 mmHg 96%
04:00 +7°C° 1.8 mm 4 mps 735 mmHg 96%
05:00 +7°C° 0.8 mm 4 mps 736 mmHg 95%
06:00 +8°C° 0.8 mm 4 mps 736 mmHg 94%
07:00 +8°C° 0.8 mm 4 mps 736 mmHg 93%
08:00 +8°C° 0.2 mm 4 mps 736 mmHg 90%
09:00 +9°C° 0.2 mm 5 mps 736 mmHg 88%
10:00 +9°C° 0.2 mm 5 mps 737 mmHg 85%
11:00 +9°C° 0.4 mm 5 mps 737 mmHg 86%
12:00 +9°C° 0.4 mm 5 mps 737 mmHg 87%
13:00 +9°C° 0.4 mm 5 mps 737 mmHg 88%
14:00 +11°C° 0.2 mm 4 mps 737 mmHg 86%
15:00 +11°C° 0.2 mm 4 mps 737 mmHg 84%
16:00 +11°C° 0.2 mm 3 mps 737 mmHg 82%
17:00 +11°C° 0.3 mm 3 mps 737 mmHg 84%
18:00 +10°C° 0.3 mm 2 mps 737 mmHg 87%
19:00 +9°C° 0.3 mm 2 mps 737 mmHg 90%
20:00 +8°C° 0 mm 2 mps 737 mmHg 91%
21:00 +8°C° 0 mm 2 mps 738 mmHg 93%
22:00 +7°C° 0 mm 2 mps 738 mmHg 94%
23:00 +6°C° 0 mm 2 mps 738 mmHg 95%

21 May, Friday

Time Temperature Precipitation Wind Pressure Humidity
00:00 +6°C° 0 mm 2 mps 738 mmHg 95%
01:00 +6°C° 0 mm 2 mps 738 mmHg 96%
02:00 +5°C° 0 mm 2 mps 739 mmHg 97%
03:00 +5°C° 0 mm 2 mps 739 mmHg 97%
04:00 +5°C° 0 mm 2 mps 739 mmHg 98%
05:00 +5°C° 0 mm 3 mps 739 mmHg 97%
06:00 +7°C° 0 mm 3 mps 739 mmHg 96%
07:00 +7°C° 0 mm 4 mps 739 mmHg 95%
08:00 +7°C° 0.1 mm 4 mps 740 mmHg 91%
09:00 +8°C° 0.1 mm 4 mps 740 mmHg 88%
10:00 +10°C° 0.1 mm 4 mps 740 mmHg 85%
11:00 +11°C° 0.1 mm 4 mps 740 mmHg 77%
12:00 +12°C° 0.1 mm 4 mps 739 mmHg 69%
13:00 +13°C° 0.1 mm 4 mps 739 mmHg 61%
14:00 +13°C° 0 mm 3 mps 739 mmHg 61%
15:00 +13°C° 0 mm 3 mps 739 mmHg 60%
16:00 +14°C° 0 mm 2 mps 739 mmHg 59%
17:00 +13°C° 0 mm 1 mps 739 mmHg 63%
18:00 +11°C° 0 mm 1 mps 738 mmHg 67%
19:00 +10°C° 0 mm 1 mps 738 mmHg 71%
20:00 +9°C° 0 mm 1 mps 738 mmHg 73%
21:00 +8°C° 0 mm 1 mps 739 mmHg 75%
22:00 +7°C° 0 mm 1 mps 739 mmHg 76%
23:00 +7°C° 0 mm 1 mps 739 mmHg 76%

22 May, Saturday

Time Temperature Precipitation Wind Pressure Humidity
00:00 +6°C° 0 mm 1 mps 738 mmHg 77%
01:00 +6°C° 0 mm 1 mps 738 mmHg 77%
02:00 +6°C° 0 mm 1 mps 738 mmHg 78%
03:00 +6°C° 0 mm 1 mps 738 mmHg 79%
04:00 +4°C° 0 mm 2 mps 739 mmHg 80%
05:00 +7°C° 0 mm 2 mps 739 mmHg 77%
06:00 +10°C° 0 mm 1 mps 739 mmHg 74%
07:00 +12°C° 0 mm 1 mps 739 mmHg 70%
08:00 +13°C° 0 mm 2 mps 739 mmHg 66%
09:00 +15°C° 0 mm 2 mps 739 mmHg 61%
10:00 +17°C° 0 mm 2 mps 739 mmHg 57%
11:00 +17°C° 0 mm 2 mps 739 mmHg 55%
12:00 +19°C° 0 mm 1 mps 739 mmHg 53%
13:00 +20°C° 0 mm 1 mps 739 mmHg 51%
14:00 +20°C° 0 mm 1 mps 739 mmHg 52%
15:00 +20°C° 0 mm 1 mps 739 mmHg 54%
16:00 +19°C° 0 mm 2 mps 739 mmHg 55%
17:00 +17°C° 0 mm 2 mps 739 mmHg 64%
18:00 +16°C° 0 mm 2 mps 739 mmHg 73%
19:00 +14°C° 0 mm 2 mps 739 mmHg 82%
20:00 +13°C° 0 mm 2 mps 739 mmHg 83%
21:00 +12°C° 0 mm 1 mps 740 mmHg 84%
22:00 +12°C° 0 mm 1 mps 740 mmHg 84%
23:00 +11°C° 0 mm 1 mps 740 mmHg 85%
Show more